[[{"header":{"parameterUnit":"m.s-1","parameterCategory":2,"la1":30.2991,"la2":30.254,"lo1":-89.0895,"lo2":-89.0444,"dy":0.0017,"dx":0.0017,"nx":28,"ny":28,"refTime":"2024-08-15T09:00:00:Z","depth":"0","parameterNumber":2,"parameterNumberName":"U-component_of_CURRENTS"},"data":[0,0,0,0,0,0,0,0,0,0,0,0,0,0,0,0,0,0,0,0,0,0,0,0,0,0,0,0,0,0,0,0,0,0,0,0,0,0,0,0,0,0,0,0,0,0,0,0,0,0,0,0,0,0,0,0,0,0,-0.3095,-0.3096,0,-0.3185,-0.3186,-0.3186,-0.3283,-0.3285,-0.3287,-0.3288,-0.3359,-0.336,-0.336,0,0,0,0,0,0,0,0,0,0,0,0,0,-0.3018,-0.3018,-0.3095,-0.3097,-0.3098,-0.3185,-0.3186,-0.3187,-0.3283,-0.3285,-0.3287,-0.3289,-0.3359,-0.336,-0.336,0,0,0,0,0,0,0,0,0,0,0,0,0,-0.307,-0.3018,-0.3095,-0.3159,-0.3166,-0.3185,-0.3186,-0.3187,-0.3283,-0.3285,-0.3288,-0.329,-0.3359,-0.336,-0.336,-0.3312,0,0,-0.3362,-0.3362,0,0,0,0,0,0,0,0,-0.3067,-0.3072,-0.3148,-0.3155,-0.3163,-0.3229,-0.3185,-0.3229,-0.3282,-0.3234,-0.3288,-0.3291,-0.3314,-0.3319,-0.3325,-0.3315,-0.3318,-0.3362,-0.3362,-0.3362,-0.3362,0,0,0,0,0,0,0,-0.3063,-0.3069,-0.3127,-0.315,-0.3158,-0.3188,-0.3197,-0.3194,-0.3256,-0.3239,-0.3247,-0.3262,-0.3318,-0.3324,-0.3327,-0.3319,-0.3362,-0.3362,-0.3362,-0.3362,-0.3197,-0.3193,0,0,0,0,0,0,-0.3056,-0.3065,-0.3124,-0.313,-0.3124,-0.3187,-0.3198,-0.3202,-0.3257,-0.3269,-0.326,-0.3266,-0.3322,-0.3327,-0.333,-0.3246,-0.3362,-0.3362,-0.3363,-0.3202,-0.3196,-0.3191,0,0,0,0,0,0,-0.3054,-0.306,-0.3121,-0.3104,-0.3114,-0.3186,-0.319,-0.3202,-0.322,-0.3273,-0.3285,-0.3266,-0.3325,-0.333,-0.3291,-0.3251,-0.3363,-0.3363,-0.3207,-0.32,-0.3194,-0.3096,0,0,0,0,0,0,-0.3051,-0.3058,-0.3043,-0.3103,-0.3115,-0.3127,-0.3188,-0.3202,-0.3226,-0.3236,-0.3281,-0.3291,-0.3327,-0.329,-0.3291,-0.3254,-0.3363,-0.3213,-0.3204,-0.3196,-0.3105,-0.3087,-0.3071,0,0,0,0,0,-0.3047,-0.3014,-0.3041,-0.3049,-0.3097,-0.3127,-0.3134,-0.3193,-0.3224,-0.3219,-0.3223,-0.329,-0.3236,-0.3286,-0.3289,-0.3251,-0.3218,-0.3207,-0.3197,-0.3113,-0.309,-0.3071,0,0,0,0,0,0,-0.2939,-0.3023,-0.3054,-0.3039,-0.3081,-0.3145,-0.3137,-0.3181,-0.3182,-0.3185,-0.3236,-0.3242,-0.3187,-0.3212,-0.3267,-0.3167,-0.3235,-0.3224,-0.317,-0.3149,-0.3132,-0.3132,-0.3364,0,0,0,0,0,-0.2915,-0.2919,-0.3002,-0.2973,-0.3003,-0.3067,-0.3082,-0.3128,-0.3148,-0.3154,-0.3179,-0.3175,-0.3141,-0.3143,-0.3123,-0.3078,-0.3083,-0.3047,-0.3029,-0.3015,-0.3009,-0.2948,-0.2926,-0.3157,-0.3157,-0.3157,0,0,-0.2838,-0.29,-0.2885,-0.2951,-0.2988,-0.3,-0.3081,-0.31,-0.3094,-0.3155,-0.3124,-0.3115,-0.3107,-0.3048,-0.3028,-0.3074,-0.2947,-0.3002,-0.2991,-0.2993,-0.2935,-0.2913,-0.2894,-0.315,-0.3151,-0.3152,0,0,-0.2702,-0.2772,-0.2735,-0.2793,-0.2869,-0.293,-0.2936,-0.3003,-0.3023,-0.2991,-0.3012,-0.2957,-0.295,-0.2917,-0.2902,-0.2766,-0.2847,-0.2779,-0.2716,-0.2655,-0.2637,-0.2622,-0.2595,-0.2578,-0.2786,-0.2786,-0.2786,0,-0.2596,-0.261,-0.2718,-0.2726,-0.2766,-0.2895,-0.2877,-0.2908,-0.2941,-0.2938,-0.2965,-0.2885,-0.287,-0.2785,-0.2734,-0.273,-0.2739,-0.2809,-0.2638,-0.2622,-0.2608,-0.2584,-0.2567,-0.278,-0.278,-0.2781,-0.2782,0,-0.2468,-0.2489,-0.2479,-0.2549,-0.2593,-0.2609,-0.2705,-0.2728,-0.2776,-0.2803,-0.2742,-0.2709,-0.2671,-0.2643,-0.265,-0.254,-0.2593,-0.2618,-0.2707,-0.258,-0.2562,-0.2545,-0.2771,-0.2773,-0.2775,-0.2777,0,0,-0.2231,-0.2354,-0.2361,-0.2401,-0.2527,-0.256,-0.2561,-0.261,-0.2615,-0.2622,-0.2588,-0.2492,-0.2515,-0.2492,-0.2494,-0.2439,-0.2319,-0.2495,-0.2494,-0.2497,-0.2227,-0.216,-0.2136,-0.2345,-0.2342,-0.2339,-0.2256,0,-0.2103,-0.2105,-0.2199,-0.2205,-0.2242,-0.2382,-0.2381,-0.2441,-0.249,-0.2492,-0.2475,-0.2436,-0.2452,-0.2433,-0.2371,-0.235,-0.2273,-0.2342,-0.2325,-0.2324,-0.2302,-0.2112,-0.2028,-0.1937,-0.2241,-0.2238,-0.2236,0,-0.1991,-0.2031,-0.201,-0.2124,-0.2146,-0.2155,-0.2254,-0.2267,-0.2317,-0.2343,-0.233,-0.2355,-0.228,-0.2302,-0.2199,-0.2265,-0.2215,-0.2193,-0.2191,-0.2152,-0.2223,-0.2109,-0.1897,-0.1894,-0.2211,-0.2213,-0.2215,0,-0.1887,-0.1928,-0.1926,-0.1965,-0.2073,-0.2079,-0.2137,-0.2209,-0.2253,-0.2261,-0.2283,-0.2234,-0.2212,-0.2155,-0.212,-0.2166,-0.2017,-0.2072,-0.1953,-0.1952,-0.1882,-0.1878,-0.1684,-0.1932,-0.1932,-0.1932,-0.1932,0,-0.1802,-0.181,-0.1881,-0.1901,-0.1927,-0.2003,-0.2036,-0.2092,-0.2144,-0.214,-0.2202,-0.2179,-0.2174,-0.2123,-0.2085,-0.1965,-0.1978,-0.189,-0.1893,-0.1842,-0.1835,-0.1837,-0.1883,-0.1929,-0.193,-0.193,-0.1931,0,-0.1727,-0.1762,-0.1797,-0.1868,-0.1899,-0.193,-0.2052,-0.2033,-0.2112,-0.2104,-0.2107,-0.2144,-0.206,-0.2047,-0.1939,-0.1901,-0.1763,-0.1745,-0.1701,-0.1696,-0.159,-0.1635,-0.1469,-0.1426,-0.1604,-0.1601,-0.1599,0,-0.169,-0.1689,-0.1792,-0.1822,-0.186,-0.1925,-0.1927,-0.2019,-0.1986,-0.2054,-0.1986,-0.198,-0.1882,-0.1769,-0.1707,-0.1606,-0.1628,-0.1469,-0.1489,-0.151,-0.1564,-0.1619,-0.1601,-0.1371,-0.1367,-0.1364,-0.1362,0,-0.1637,-0.1675,-0.1736,-0.175,-0.1764,-0.1779,-0.1775,-0.1766,-0.1781,-0.176,-0.1649,-0.1607,-0.159,-0.1465,-0.1416,-0.1358,-0.1442,-0.1398,-0.1409,-0.1322,-0.1377,-0.1364,-0.1548,-0.1333,-0.1336,-0.1338,-0.1339,-0.134,-0.1622,-0.1649,-0.1667,-0.167,-0.1657,-0.1498,-0.1451,-0.1371,-0.1263,-0.1115,-0.1204,-0.1037,-0.1211,-0.114,-0.112,-0.1116,-0.12,-0.1091,-0.1137,-0.1185,-0.1136,-0.1257,-0.1053,-0.1054,-0.1055,-0.1056,-0.1057,0,-0.1542,-0.1539,-0.1546,-0.1491,-0.134,-0.1364,-0.1223,-0.1096,-0.0835,-0.07,-0.0557,-0.0494,-0.0566,-0.0763,-0.0912,-0.0883,-0.0892,-0.0881,-0.0944,-0.0931,-0.1007,-0.0988,-0.0771,-0.0771,-0.0771,-0.0771,-0.0771,-0.0771,-0.1501,-0.1434,-0.1389,-0.1112,-0.1059,-0.0788,-0.0659,-0.0487,-0.0349,-0.0043,0.0105,0.0128,-0.0261,-0.0675,-0.0838,-0.0812,-0.0826,-0.0786,-0.0834,-0.0918,-0.0943,-0.0967,-0.0956,-0.0735,-0.0735,-0.0714,-0.0714,-0.0714]},{"header":{"parameterUnit":"m.s-1","parameterCategory":2,"la1":30.2991,"la2":30.254,"lo1":-89.0895,"lo2":-89.0444,"dy":0.0017,"dx":0.0017,"nx":28,"ny":28,"refTime":"2024-08-15T09:00:00:Z","depth":"0","parameterNumber":3,"parameterNumberName":"V-component_of_CURRENTS"},"data":[0,0,0,0,0,0,0,0,0,0,0,0,0,0,0,0,0,0,0,0,0,0,0,0,0,0,0,0,0,0,0,0,0,0,0,0,0,0,0,0,0,0,0,0,0,0,0,0,0,0,0,0,0,0,0,0,0,0,-0.0091,-0.0089,0,0.0171,0.0174,0.0177,0.038,0.0381,0.0383,0.0385,0.0693,0.0699,0.0705,0,0,0,0,0,0,0,0,0,0,0,0,0,-0.033,-0.0327,-0.0092,-0.0088,-0.0085,0.0171,0.0174,0.0178,0.0379,0.0382,0.0384,0.0386,0.069,0.0698,0.0706,0,0,0,0,0,0,0,0,0,0,0,0,0,-0.0163,-0.0326,-0.0092,0.0046,0.0061,0.017,0.0174,0.0179,0.0379,0.0382,0.0384,0.0387,0.0688,0.0697,0.0707,0.071,0,0,0.0736,0.0741,0,0,0,0,0,0,0,0,-0.0173,-0.0154,0.0022,0.0036,0.0053,0.0245,0.0203,0.0359,0.0378,0.0258,0.0385,0.0388,0.0545,0.0566,0.0609,0.0725,0.0738,0.0737,0.0743,0.0747,0.075,0,0,0,0,0,0,0,-0.0185,-0.0164,0.0013,0.0025,0.0044,0.0125,0.0151,0.0234,0.0384,0.0269,0.0284,0.0312,0.0554,0.0599,0.0618,0.0742,0.0737,0.0745,0.0751,0.0755,0.0942,0.0941,0,0,0,0,0,0,-0.0225,-0.0176,0.0005,0.0021,-0.0056,0.0127,0.0156,0.0181,0.0382,0.0415,0.0309,0.032,0.0582,0.0607,0.063,0.0724,0.0747,0.0756,0.0762,0.0943,0.0942,0.0941,0,0,0,0,0,0,-0.0232,-0.0212,-0.0006,-0.0071,-0.0039,0.0127,0.0154,0.0185,0.024,0.0412,0.0447,0.0334,0.0585,0.0616,0.0709,0.0735,0.0761,0.0769,0.0944,0.0942,0.0941,0.0863,0,0,0,0,0,0,-0.024,-0.0216,-0.0221,-0.0075,-0.0037,0.0061,0.0152,0.0188,0.0252,0.0269,0.0444,0.0476,0.0589,0.0694,0.0719,0.0749,0.0777,0.0945,0.0943,0.0942,0.0867,0.0859,0.0853,0,0,0,0,0,-0.0249,-0.0256,-0.0223,-0.0201,-0.0046,0.006,0.0086,0.0215,0.0249,0.0273,0.0385,0.0471,0.0702,0.0701,0.073,0.0764,0.0945,0.0944,0.0942,0.087,0.0861,0.0853,0,0,0,0,0,0,-0.0353,-0.0232,-0.0192,-0.016,-0.0063,0.0094,0.0122,0.0193,0.0297,0.0308,0.0461,0.05,0.0586,0.0666,0.066,0.0806,0.0837,0.084,0.0772,0.0764,0.0758,0.075,0.0785,0,0,0,0,0,-0.0388,-0.0364,-0.0233,-0.0211,-0.0172,-0.004,0.0012,0.0096,0.021,0.0259,0.0379,0.0495,0.0596,0.0671,0.076,0.0842,0.0856,0.0878,0.0871,0.0865,0.0874,0.0911,0.0908,0.0935,0.0935,0.0935,0,0,-0.0422,-0.0356,-0.034,-0.0234,-0.0153,-0.0086,-0.0,0.0071,0.0141,0.0271,0.0379,0.0461,0.0601,0.0701,0.0748,0.0782,0.0847,0.0862,0.0857,0.087,0.0908,0.0906,0.0904,0.0933,0.0934,0.0934,0,0,-0.0467,-0.0425,-0.0411,-0.0343,-0.0236,-0.0142,-0.0133,0.0009,0.0086,0.0179,0.029,0.0385,0.0537,0.0665,0.0743,0.0742,0.0788,0.0759,0.0758,0.0792,0.079,0.0789,0.0727,0.0721,0.0784,0.0783,0.0783,0,-0.051,-0.0471,-0.0392,-0.0355,-0.0303,-0.0177,-0.0138,-0.0041,0.0116,0.0175,0.0199,0.0416,0.0531,0.0682,0.0698,0.0735,0.0716,0.0784,0.0783,0.0783,0.0784,0.0721,0.0716,0.0779,0.078,0.078,0.0781,0,-0.0521,-0.0499,-0.0489,-0.0396,-0.0335,-0.0287,-0.0149,-0.0077,0.0005,0.0113,0.0235,0.0375,0.0512,0.0562,0.0648,0.0725,0.069,0.0746,0.0804,0.0777,0.071,0.0706,0.0774,0.0775,0.0776,0.0777,0,0,-0.0571,-0.051,-0.0502,-0.0483,-0.0358,-0.0302,-0.0206,-0.0067,-0.0008,0.0129,0.0199,0.0397,0.0452,0.0541,0.0645,0.0709,0.0683,0.073,0.0734,0.0664,0.0669,0.0715,0.0715,0.0733,0.0734,0.0735,0.0593,0,-0.0591,-0.0569,-0.0516,-0.0474,-0.0444,-0.0328,-0.0251,-0.012,-0.001,0.0083,0.0244,0.0339,0.0454,0.0493,0.0579,0.0661,0.0681,0.0711,0.0711,0.0709,0.0755,0.0718,0.0778,0.0666,0.0589,0.0589,0.0588,0,-0.059,-0.0581,-0.057,-0.0519,-0.0496,-0.0452,-0.0327,-0.0242,-0.0074,-0.0002,0.0129,0.0231,0.0372,0.0432,0.0566,0.0569,0.0606,0.0659,0.0655,0.0738,0.0753,0.0699,0.0663,0.0779,0.0583,0.0583,0.0584,0,-0.0639,-0.0604,-0.0608,-0.0587,-0.0507,-0.0482,-0.0422,-0.027,-0.0182,-0.007,-0.0019,0.0137,0.021,0.0304,0.0465,0.0485,0.0557,0.0595,0.0654,0.0652,0.073,0.0737,0.0822,0.0645,0.0645,0.0645,0.0646,0,-0.0658,-0.0657,-0.0644,-0.0643,-0.0632,-0.0563,-0.0511,-0.0426,-0.0304,-0.0166,-0.008,0.0039,0.0186,0.0286,0.0388,0.0515,0.0494,0.0637,0.0643,0.0695,0.07,0.0831,0.0876,0.064,0.0641,0.0642,0.0643,0,-0.0695,-0.0686,-0.0693,-0.0668,-0.0655,-0.0649,-0.0554,-0.0456,-0.0404,-0.0241,-0.0207,-0.0054,0.0068,0.0189,0.0321,0.0426,0.0599,0.0568,0.0574,0.0588,0.0764,0.0801,0.0864,0.0942,0.0569,0.0569,0.057,0,-0.071,-0.0725,-0.0727,-0.0678,-0.0666,-0.0641,-0.0547,-0.0493,-0.0359,-0.0226,-0.0106,-0.0033,0.016,0.0278,0.0404,0.0494,0.0619,0.0601,0.0702,0.0781,0.0825,0.0848,0.0912,0.071,0.0712,0.0713,0.0714,0,-0.074,-0.0751,-0.0747,-0.0647,-0.0575,-0.0509,-0.0394,-0.0334,-0.0189,-0.0083,0.0132,0.0236,0.0329,0.0478,0.0516,0.0601,0.0709,0.0633,0.0745,0.0974,0.0977,0.1053,0.0719,0.0727,0.0725,0.0725,0.0724,0.0723,-0.0742,-0.0717,-0.0658,-0.0557,-0.0477,-0.0327,-0.0258,-0.0092,0.0053,0.0263,0.0363,0.0548,0.0671,0.074,0.0773,0.0847,0.0818,0.0939,0.0966,0.0973,0.1118,0.0775,0.0803,0.0802,0.0801,0.0801,0.08,0,-0.061,-0.0569,-0.0504,-0.0382,-0.0259,-0.024,-0.0072,0.0042,0.0241,0.0441,0.0645,0.0954,0.1032,0.1051,0.1099,0.119,0.122,0.1244,0.1307,0.1353,0.1074,0.1158,0.1233,0.1233,0.1233,0.1233,0.1232,0.1232,-0.0512,-0.0383,-0.0341,-0.0162,-0.009,0.0091,0.0181,0.0332,0.0481,0.0784,0.0986,0.1164,0.1293,0.1408,0.1478,0.1497,0.1628,0.1594,0.1649,0.1482,0.1456,0.1432,0.1526,0.1677,0.1677,0.1956,0.1958,0.196]}],[{"header":{"parameterUnit":"m.s-1","parameterCategory":2,"la1":30.2991,"la2":30.254,"lo1":-89.0895,"lo2":-89.0444,"dy":0.0017,"dx":0.0017,"nx":28,"ny":28,"refTime":"2024-08-15T09:00:00:Z","depth":"2","parameterNumber":2,"parameterNumberName":"U-component_of_CURRENTS"},"data":[0,0,0,0,0,0,0,0,0,0,0,0,0,0,0,0,0,0,0,0,0,0,0,0,0,0,0,0,0,0,0,0,0,0,0,0,0,0,0,0,0,0,0,0,0,0,0,0,0,0,0,0,0,0,0,0,0,0,-0.2274,-0.2276,0,-0.2388,-0.2389,-0.239,-0.2447,-0.2448,-0.2448,-0.2448,-0.2559,-0.2561,-0.2564,0,0,0,0,0,0,0,0,0,0,0,0,0,-0.213,-0.2132,-0.2274,-0.2276,-0.2278,-0.2387,-0.2389,-0.239,-0.2447,-0.2448,-0.2448,-0.2448,-0.2558,-0.2561,-0.2564,0,0,0,0,0,0,0,0,0,0,0,0,0,-0.2209,-0.2132,-0.2274,-0.2322,-0.2328,-0.2387,-0.2389,-0.239,-0.2447,-0.2448,-0.2448,-0.2449,-0.2557,-0.2561,-0.2564,-0.2576,0,0,-0.2576,-0.2578,0,0,0,0,0,0,0,0,-0.2204,-0.2214,-0.2313,-0.2319,-0.2326,-0.2407,-0.2379,-0.2454,-0.2447,-0.2398,-0.2448,-0.2449,-0.251,-0.2518,-0.2532,-0.2582,-0.2586,-0.2577,-0.2579,-0.2581,-0.2582,0,0,0,0,0,0,0,-0.2199,-0.2209,-0.2315,-0.2315,-0.2323,-0.2347,-0.2358,-0.2393,-0.2446,-0.2402,-0.2407,-0.2426,-0.2513,-0.2528,-0.2535,-0.2588,-0.2576,-0.258,-0.2582,-0.2584,-0.2644,-0.2643,0,0,0,0,0,0,-0.2191,-0.2204,-0.2312,-0.2319,-0.227,-0.2349,-0.2361,-0.2377,-0.2446,-0.2458,-0.2425,-0.2428,-0.2521,-0.2531,-0.2539,-0.2556,-0.2581,-0.2584,-0.2586,-0.2644,-0.2644,-0.2643,0,0,0,0,0,0,-0.2187,-0.2199,-0.2307,-0.2267,-0.2283,-0.2351,-0.2368,-0.2379,-0.2411,-0.2464,-0.2476,-0.2448,-0.2522,-0.2534,-0.2571,-0.2561,-0.2586,-0.2589,-0.2645,-0.2644,-0.2643,-0.259,0,0,0,0,0,0,-0.2183,-0.2197,-0.2199,-0.2267,-0.2285,-0.2341,-0.2369,-0.2381,-0.2422,-0.2427,-0.2487,-0.2497,-0.2524,-0.2565,-0.2575,-0.2566,-0.2592,-0.2646,-0.2645,-0.2643,-0.2593,-0.2587,-0.2583,0,0,0,0,0,-0.2177,-0.2179,-0.2198,-0.2211,-0.2288,-0.2342,-0.2353,-0.24,-0.2423,-0.2431,-0.2469,-0.2496,-0.2563,-0.2568,-0.2579,-0.2572,-0.2647,-0.2645,-0.2644,-0.2595,-0.2588,-0.2583,0,0,0,0,0,0,-0.2121,-0.2188,-0.2209,-0.2233,-0.2283,-0.2353,-0.2365,-0.2405,-0.2443,-0.2446,-0.2497,-0.2509,-0.2532,-0.256,-0.2565,-0.2583,-0.2605,-0.2606,-0.2564,-0.2558,-0.2553,-0.2501,-0.2596,0,0,0,0,0,-0.2108,-0.2126,-0.2196,-0.2215,-0.2236,-0.2302,-0.233,-0.2365,-0.2413,-0.2431,-0.2486,-0.2521,-0.2532,-0.2553,-0.2577,-0.2599,-0.2578,-0.2597,-0.2592,-0.2588,-0.2551,-0.2522,-0.2511,-0.2637,-0.2637,-0.2637,0,0,-0.2097,-0.2132,-0.2145,-0.2204,-0.2243,-0.2259,-0.2319,-0.2359,-0.2368,-0.2436,-0.2472,-0.2511,-0.2533,-0.2547,-0.2559,-0.2573,-0.254,-0.2586,-0.2582,-0.2546,-0.2519,-0.2507,-0.2495,-0.2636,-0.2636,-0.2637,0,0,-0.2065,-0.2108,-0.2103,-0.2139,-0.2196,-0.2235,-0.2248,-0.233,-0.2357,-0.2399,-0.2432,-0.2458,-0.2521,-0.2517,-0.2521,-0.2502,-0.2512,-0.2527,-0.2464,-0.2438,-0.2427,-0.2416,-0.2367,-0.2353,-0.2527,-0.2527,-0.2527,0,-0.2043,-0.2052,-0.2112,-0.2113,-0.2139,-0.222,-0.2221,-0.2252,-0.2339,-0.2351,-0.24,-0.2446,-0.2488,-0.2452,-0.2451,-0.2487,-0.2471,-0.2489,-0.2429,-0.2419,-0.2409,-0.2361,-0.2346,-0.2524,-0.2525,-0.2525,-0.2525,0,-0.1998,-0.2014,-0.2018,-0.2041,-0.2073,-0.2095,-0.215,-0.2185,-0.2243,-0.2279,-0.2295,-0.2346,-0.2371,-0.2391,-0.242,-0.237,-0.238,-0.2424,-0.244,-0.2393,-0.2345,-0.2331,-0.252,-0.2521,-0.2522,-0.2523,0,0,-0.193,-0.1976,-0.1977,-0.1989,-0.2042,-0.2071,-0.2072,-0.2101,-0.2112,-0.2171,-0.2178,-0.2193,-0.2241,-0.2244,-0.2288,-0.2267,-0.2204,-0.2319,-0.2319,-0.226,-0.2125,-0.2068,-0.2047,-0.225,-0.2248,-0.2246,-0.2117,0,-0.1878,-0.1872,-0.1906,-0.191,-0.1922,-0.1985,-0.1991,-0.2023,-0.2074,-0.2108,-0.2116,-0.2148,-0.2176,-0.2213,-0.2183,-0.2224,-0.2164,-0.2233,-0.2187,-0.2184,-0.2132,-0.2027,-0.1907,-0.1776,-0.2102,-0.21,-0.2098,0,-0.1813,-0.1828,-0.1819,-0.1872,-0.1881,-0.1887,-0.1928,-0.1947,-0.1976,-0.2019,-0.2018,-0.2066,-0.2037,-0.2095,-0.2033,-0.2085,-0.2075,-0.2082,-0.2079,-0.2025,-0.2098,-0.1879,-0.1738,-0.2073,-0.2075,-0.2077,-0.2079,0,-0.1747,-0.177,-0.1767,-0.1783,-0.184,-0.1841,-0.1872,-0.1911,-0.1939,-0.1964,-0.1998,-0.1968,-0.1991,-0.1953,-0.1975,-0.2012,-0.191,-0.1974,-0.1875,-0.1872,-0.1752,-0.1742,-0.1872,-0.1872,-0.1872,-0.1872,-0.1873,0,-0.1689,-0.169,-0.1738,-0.1742,-0.1749,-0.18,-0.1814,-0.1847,-0.1892,-0.1906,-0.1949,-0.1946,-0.1963,-0.1935,-0.1927,-0.1838,-0.1859,-0.1806,-0.1816,-0.1731,-0.1721,-0.198,-0.1994,-0.1868,-0.1869,-0.187,-0.187,0,-0.1625,-0.1652,-0.1662,-0.171,-0.1721,-0.1731,-0.1795,-0.18,-0.1858,-0.1879,-0.1889,-0.1923,-0.1872,-0.1857,-0.1813,-0.1778,-0.1715,-0.1673,-0.1558,-0.1555,-0.1698,-0.1712,-0.1524,-0.1521,-0.1518,-0.1515,-0.1513,0,-0.1592,-0.1588,-0.1636,-0.163,-0.1648,-0.1675,-0.1684,-0.1767,-0.1778,-0.1848,-0.1836,-0.1826,-0.1779,-0.1672,-0.1606,-0.1506,-0.1599,-0.135,-0.1381,-0.1623,-0.1654,-0.1672,-0.1689,-0.1201,-0.1197,-0.1193,-0.119,0,-0.153,-0.1549,-0.1553,-0.1549,-0.1553,-0.1581,-0.1602,-0.162,-0.1701,-0.1721,-0.1721,-0.1698,-0.1607,-0.1449,-0.1339,-0.1281,-0.1362,-0.1272,-0.1526,-0.1324,-0.1313,-0.1346,-0.1374,-0.1158,-0.1161,-0.1163,-0.1165,-0.1166,-0.1472,-0.1458,-0.1452,-0.1439,-0.1449,-0.145,-0.1431,-0.1464,-0.1477,-0.1476,-0.1548,-0.1466,-0.1432,-0.1187,-0.1094,-0.1019,-0.1119,-0.1077,-0.109,-0.1107,-0.1109,-0.1094,-0.0896,-0.0898,-0.0899,-0.0901,-0.0902,0,-0.1376,-0.1353,-0.1334,-0.1309,-0.1273,-0.1327,-0.1333,-0.1292,-0.1254,-0.1273,-0.1261,-0.1128,-0.0999,-0.096,-0.0784,-0.0741,-0.0761,-0.0714,-0.0747,-0.0778,-0.0806,-0.0796,-0.0499,-0.0498,-0.0497,-0.0496,0,0,-0.1314,-0.1246,-0.1231,-0.1127,-0.111,-0.1035,-0.1018,-0.0988,-0.0969,-0.0906,-0.0871,-0.0953,-0.0936,-0.0741,-0.0672,-0.0549,-0.0663,-0.0516,-0.0836,-0.0905,-0.0932,-0.1004,-0.1022,0,0,0,0,0]},{"header":{"parameterUnit":"m.s-1","parameterCategory":2,"la1":30.2991,"la2":30.254,"lo1":-89.0895,"lo2":-89.0444,"dy":0.0017,"dx":0.0017,"nx":28,"ny":28,"refTime":"2024-08-15T09:00:00:Z","depth":"2","parameterNumber":3,"parameterNumberName":"V-component_of_CURRENTS"},"data":[0,0,0,0,0,0,0,0,0,0,0,0,0,0,0,0,0,0,0,0,0,0,0,0,0,0,0,0,0,0,0,0,0,0,0,0,0,0,0,0,0,0,0,0,0,0,0,0,0,0,0,0,0,0,0,0,0,0,-0.0333,-0.0332,0,-0.0226,-0.0225,-0.0224,-0.0162,-0.0161,-0.016,-0.016,0.0031,0.0035,0.004,0,0,0,0,0,0,0,0,0,0,0,0,0,-0.0453,-0.0451,-0.0334,-0.0332,-0.033,-0.0226,-0.0225,-0.0224,-0.0162,-0.0161,-0.016,-0.016,0.003,0.0035,0.004,0,0,0,0,0,0,0,0,0,0,0,0,0,-0.0382,-0.0451,-0.0334,-0.0284,-0.0278,-0.0226,-0.0225,-0.0224,-0.0162,-0.0161,-0.016,-0.0159,0.0028,0.0034,0.0041,0.0066,0,0,0.0062,0.0065,0,0,0,0,0,0,0,0,-0.0386,-0.0378,-0.0293,-0.0287,-0.0281,-0.0203,-0.0197,-0.0121,-0.0162,-0.021,-0.016,-0.0159,-0.0038,-0.0026,-0.0014,0.0075,0.0083,0.0063,0.0067,0.007,0.0072,0,0,0,0,0,0,0,-0.0391,-0.0382,-0.0295,-0.0291,-0.0284,-0.0256,-0.0245,-0.0183,-0.0131,-0.0206,-0.02,-0.0183,-0.0034,-0.0021,-0.0008,0.0086,0.0062,0.0068,0.0073,0.0075,0.0206,0.0206,0,0,0,0,0,0,-0.04,-0.0387,-0.0298,-0.0291,-0.0328,-0.0254,-0.0243,-0.0232,-0.0133,-0.0117,-0.0183,-0.018,-0.0033,-0.0016,-0.0001,0.0072,0.007,0.0076,0.008,0.0207,0.0206,0.0206,0,0,0,0,0,0,-0.0403,-0.0393,-0.0302,-0.0333,-0.0319,-0.0253,-0.0241,-0.023,-0.0209,-0.0117,-0.01,-0.0173,-0.0031,-0.0011,0.0057,0.0079,0.0079,0.0085,0.0208,0.0207,0.0206,0.0196,0,0,0,0,0,0,-0.0407,-0.0395,-0.0398,-0.0334,-0.0318,-0.027,-0.0241,-0.0229,-0.0198,-0.0193,-0.0102,-0.0084,-0.0029,0.0046,0.0064,0.0088,0.0091,0.0209,0.0207,0.0206,0.0197,0.0195,0.0193,0,0,0,0,0,-0.0412,-0.0413,-0.0399,-0.0388,-0.0321,-0.027,-0.0259,-0.0211,-0.0199,-0.0191,-0.0131,-0.0086,0.0051,0.0052,0.0072,0.01,0.0209,0.0208,0.0206,0.0198,0.0195,0.0193,0,0,0,0,0,0,-0.0462,-0.0404,-0.0388,-0.0371,-0.0324,-0.0258,-0.0247,-0.0216,-0.0166,-0.0162,-0.0081,-0.0059,-0.0001,0.0042,0.0041,0.0126,0.0132,0.0135,0.0119,0.0117,0.0115,0.0099,0.0096,0,0,0,0,0,-0.0476,-0.0465,-0.0402,-0.0389,-0.0371,-0.0313,-0.0289,-0.0257,-0.0199,-0.0178,-0.0107,-0.0046,0.0006,0.0056,0.01,0.0166,0.0181,0.0188,0.0186,0.0185,0.0181,0.0184,0.0182,0.0201,0.0201,0.0201,0,0,-0.0491,-0.0459,-0.0452,-0.04,-0.0365,-0.0337,-0.0298,-0.0264,-0.0238,-0.0163,-0.0106,-0.0054,0.0013,0.0075,0.0106,0.0124,0.0192,0.0183,0.0181,0.0179,0.0183,0.0181,0.0179,0.02,0.02,0.0201,0,0,-0.0511,-0.0489,-0.0485,-0.0451,-0.04,-0.0361,-0.0353,-0.0283,-0.0253,-0.0194,-0.0144,-0.0077,0.0014,0.0075,0.0113,0.0125,0.0163,0.0136,0.0145,0.0148,0.0147,0.0146,0.0189,0.0192,0.0156,0.0156,0.0156,0,-0.0533,-0.0515,-0.0475,-0.0459,-0.0432,-0.0375,-0.0358,-0.032,-0.0234,-0.0207,-0.0181,-0.0065,0.0012,0.008,0.0101,0.0125,0.0136,0.0157,0.0147,0.0146,0.0145,0.0189,0.0192,0.0155,0.0156,0.0156,0.0156,0,-0.054,-0.0529,-0.0524,-0.0486,-0.0454,-0.0432,-0.037,-0.0334,-0.0289,-0.0241,-0.0177,-0.0085,-0.0008,0.0027,0.0087,0.0125,0.0139,0.0128,0.0156,0.0143,0.019,0.0193,0.0155,0.0155,0.0155,0.0155,0,0,-0.0576,-0.0539,-0.0537,-0.0529,-0.0468,-0.0443,-0.0403,-0.0346,-0.0317,-0.0246,-0.0201,-0.0095,-0.0047,-0.0003,0.007,0.0104,0.0146,0.0128,0.0128,0.0176,0.0176,0.0197,0.0203,0.0125,0.0124,0.0124,0.0221,0,-0.0593,-0.0588,-0.0552,-0.0537,-0.0526,-0.0466,-0.0431,-0.0375,-0.0314,-0.0254,-0.018,-0.0116,-0.0062,-0.0008,0.003,0.0115,0.0149,0.0123,0.0176,0.0178,0.0202,0.0205,0.0189,0.0274,0.0225,0.0226,0.0226,0,-0.0601,-0.06,-0.06,-0.0566,-0.0554,-0.0535,-0.0471,-0.0431,-0.0344,-0.0294,-0.0228,-0.0165,-0.0067,-0.0044,0.0069,0.0045,0.0109,0.016,0.0164,0.0186,0.0204,0.0273,0.0282,0.0232,0.0232,0.0231,0.0231,0,-0.0643,-0.0624,-0.0633,-0.0621,-0.0576,-0.0563,-0.0531,-0.045,-0.0415,-0.0322,-0.028,-0.0188,-0.0122,-0.006,0.0076,0.0071,0.0177,0.0178,0.0249,0.0253,0.0252,0.0255,0.0218,0.0218,0.0218,0.0217,0.0217,0,-0.0665,-0.0669,-0.0662,-0.0666,-0.0673,-0.0615,-0.0596,-0.0541,-0.0462,-0.0425,-0.0313,-0.0255,-0.0131,-0.0041,0.0056,0.0176,0.0157,0.0253,0.027,0.0251,0.0253,0.0215,0.0214,0.0221,0.022,0.0219,0.0219,0,-0.07,-0.0694,-0.071,-0.0696,-0.0696,-0.0701,-0.0658,-0.0643,-0.0548,-0.0494,-0.0466,-0.0303,-0.0169,-0.0046,0.0092,0.0161,0.0264,0.03,0.0295,0.0309,0.035,0.0347,0.04,0.0402,0.0403,0.0404,0.0404,0,-0.0715,-0.0731,-0.0754,-0.0783,-0.0785,-0.0785,-0.079,-0.0705,-0.0682,-0.0522,-0.0507,-0.0341,-0.0216,0.0012,0.0165,0.0326,0.0307,0.0382,0.0364,0.0353,0.0365,0.036,0.0355,0.0379,0.038,0.038,0.038,0,-0.0752,-0.0767,-0.0789,-0.0854,-0.0885,-0.09,-0.0894,-0.088,-0.0772,-0.0705,-0.0572,-0.0447,-0.0177,0.0031,0.0248,0.033,0.0358,0.0396,0.0374,0.0326,0.0338,0.0348,0.0343,0.0384,0.0384,0.0384,0.0383,0.0383,-0.0785,-0.0824,-0.0867,-0.0919,-0.0961,-0.0991,-0.0987,-0.0963,-0.0911,-0.0764,-0.0664,-0.0449,-0.0208,0.0131,0.0285,0.0431,0.0427,0.0444,0.0441,0.0438,0.0408,0.042,0.048,0.048,0.048,0.048,0.048,0,-0.0834,-0.0874,-0.093,-0.0986,-0.103,-0.1037,-0.1036,-0.0999,-0.0939,-0.08,-0.0669,-0.0407,-0.0149,0.0109,0.0359,0.0491,0.0476,0.0494,0.0452,0.0448,0.0444,0.0412,0.0487,0.0487,0.0487,0.0488,0,0,-0.0865,-0.0932,-0.0957,-0.1027,-0.1062,-0.1083,-0.1074,-0.1012,-0.0901,-0.0745,-0.0585,-0.0414,-0.01,0.006,0.0242,0.0382,0.0371,0.0384,0.0365,0.0289,0.0284,0.0403,0.0348,0,0,0,0,0]}],[{"header":{"parameterUnit":"m.s-1","parameterCategory":2,"la1":30.2991,"la2":30.254,"lo1":-89.0895,"lo2":-89.0444,"dy":0.0017,"dx":0.0017,"nx":28,"ny":28,"refTime":"2024-08-15T09:00:00:Z","depth":"4","parameterNumber":2,"parameterNumberName":"U-component_of_CURRENTS"},"data":[0,0,0,0,0,0,0,0,0,0,0,0,0,0,0,0,0,0,0,0,0,0,0,0,0,0,0,0,0,0,0,0,0,0,0,0,0,0,0,0,0,0,0,0,0,0,0,0,0,0,0,0,0,0,0,0,0,0,-0.132,-0.132,0,-0.134,-0.134,-0.134,-0.1371,-0.1372,-0.1372,-0.1373,-0.1417,-0.1417,-0.1418,0,0,0,0,0,0,0,0,0,0,0,0,0,-0.1305,-0.1305,-0.132,-0.132,-0.1321,-0.134,-0.134,-0.134,-0.1371,-0.1372,-0.1373,-0.1373,-0.1417,-0.1417,-0.1418,0,0,0,0,0,0,0,0,0,0,0,0,0,-0.1316,-0.1305,-0.132,-0.1339,-0.1341,-0.134,-0.134,-0.134,-0.1371,-0.1372,-0.1373,-0.1374,-0.1417,-0.1417,-0.1418,-0.1403,0,0,-0.1421,-0.1421,0,0,0,0,0,0,0,0,-0.1315,-0.1316,-0.1336,-0.1338,-0.134,-0.1355,-0.1351,-0.1363,-0.1371,-0.1358,-0.1373,-0.1374,-0.1398,-0.1401,-0.14,-0.1405,-0.1407,-0.1421,-0.1421,-0.1422,-0.1422,0,0,0,0,0,0,0,-0.1314,-0.1315,-0.1327,-0.1336,-0.1339,-0.1346,-0.1348,-0.1353,-0.1372,-0.1359,-0.1362,-0.1366,-0.14,-0.1399,-0.1402,-0.1408,-0.1421,-0.1421,-0.1422,-0.1422,-0.1474,-0.1475,0,0,0,0,0,0,-0.1313,-0.1315,-0.1326,-0.1327,-0.1331,-0.1345,-0.1348,-0.1348,-0.1372,-0.1376,-0.1365,-0.1367,-0.1397,-0.1401,-0.1403,-0.1426,-0.1422,-0.1422,-0.1423,-0.1474,-0.1475,-0.1476,0,0,0,0,0,0,-0.1313,-0.1314,-0.1325,-0.1323,-0.1325,-0.1345,-0.1344,-0.1348,-0.1373,-0.1376,-0.1381,-0.139,-0.1398,-0.1402,-0.1419,-0.1427,-0.1423,-0.1423,-0.1472,-0.1474,-0.1475,-0.1447,0,0,0,0,0,0,-0.1312,-0.1313,-0.1328,-0.1322,-0.1325,-0.1322,-0.1344,-0.1348,-0.1373,-0.1377,-0.1398,-0.1402,-0.1399,-0.1418,-0.142,-0.1428,-0.1424,-0.1471,-0.1473,-0.1475,-0.1447,-0.1447,-0.1447,0,0,0,0,0,-0.1311,-0.1326,-0.1328,-0.1331,-0.1339,-0.1321,-0.1323,-0.134,-0.1374,-0.137,-0.1395,-0.1402,-0.1431,-0.1419,-0.1421,-0.1429,-0.1471,-0.1473,-0.1475,-0.1446,-0.1447,-0.1447,0,0,0,0,0,0,-0.1336,-0.1331,-0.1333,-0.1349,-0.1333,-0.1327,-0.1346,-0.1354,-0.1372,-0.1397,-0.1403,-0.1406,-0.1428,-0.1437,-0.1423,-0.1454,-0.1457,-0.1459,-0.1435,-0.1435,-0.1436,-0.1426,-0.1425,0,0,0,0,0,-0.1344,-0.1355,-0.1336,-0.1351,-0.1349,-0.1352,-0.1359,-0.1363,-0.1372,-0.1384,-0.139,-0.1415,-0.1433,-0.1442,-0.1453,-0.1461,-0.1468,-0.1475,-0.1475,-0.1475,-0.1472,-0.1491,-0.1492,-0.1482,-0.1482,-0.1482,0,0,-0.1363,-0.1361,-0.1371,-0.1357,-0.1361,-0.1351,-0.1359,-0.1372,-0.137,-0.1385,-0.14,-0.1415,-0.1438,-0.1447,-0.1458,-0.1457,-0.1481,-0.1478,-0.1477,-0.1474,-0.1493,-0.1494,-0.1495,-0.1484,-0.1483,-0.1483,0,0,-0.1383,-0.1399,-0.1402,-0.1391,-0.1388,-0.1379,-0.1386,-0.1377,-0.1383,-0.1388,-0.1408,-0.142,-0.1446,-0.1444,-0.1456,-0.1468,-0.1484,-0.1492,-0.1478,-0.1498,-0.1498,-0.1498,-0.1496,-0.1496,-0.1488,-0.1488,-0.1488,0,-0.1406,-0.14,-0.14,-0.1392,-0.1393,-0.1394,-0.1388,-0.1386,-0.1381,-0.1383,-0.1396,-0.1432,-0.144,-0.1453,-0.1454,-0.1465,-0.1481,-0.1469,-0.1495,-0.1496,-0.1497,-0.1495,-0.1496,-0.1487,-0.1487,-0.1488,-0.1488,0,-0.1399,-0.1412,-0.1418,-0.1405,-0.1403,-0.1403,-0.1389,-0.1389,-0.1406,-0.1397,-0.1414,-0.1418,-0.144,-0.1445,-0.1452,-0.1466,-0.1477,-0.1493,-0.1486,-0.1496,-0.1493,-0.1495,-0.1486,-0.1486,-0.1486,-0.1487,0,0,-0.139,-0.1409,-0.141,-0.1414,-0.1412,-0.1403,-0.1409,-0.1392,-0.1411,-0.14,-0.1417,-0.1419,-0.1428,-0.1442,-0.1451,-0.1455,-0.146,-0.1478,-0.1479,-0.1461,-0.1499,-0.1378,-0.1368,-0.1492,-0.1492,-0.1492,-0.1489,0,-0.1377,-0.1377,-0.1387,-0.1393,-0.1389,-0.1402,-0.1406,-0.1403,-0.1412,-0.1424,-0.1423,-0.1447,-0.1428,-0.1453,-0.1449,-0.1475,-0.1466,-0.1459,-0.1505,-0.1506,-0.1385,-0.1366,-0.1494,-0.149,-0.149,-0.149,-0.1491,0,-0.1337,-0.1348,-0.1356,-0.1388,-0.139,-0.1398,-0.1416,-0.1419,-0.1435,-0.1451,-0.1463,-0.1478,-0.1477,-0.1476,-0.148,-0.1487,-0.1485,-0.1489,-0.1489,-0.1386,-0.1387,-0.1485,-0.1493,-0.1493,-0.1493,-0.1493,-0.1492,0,-0.1293,-0.1318,-0.133,-0.1337,-0.1371,-0.1386,-0.1405,-0.1426,-0.1432,-0.1474,-0.1495,-0.1506,-0.1521,-0.1527,-0.1505,-0.1517,-0.1512,-0.1533,-0.141,-0.1402,-0.1526,-0.1526,-0.1527,-0.1527,-0.1527,-0.1527,-0.1528,0,-0.1245,-0.1258,-0.1318,-0.1321,-0.1339,-0.1377,-0.1399,-0.1423,-0.1464,-0.1461,-0.1507,-0.1504,-0.154,-0.1532,-0.1522,-0.1448,-0.1521,-0.1391,-0.1388,-0.1514,-0.1513,-0.1526,-0.1526,-0.1527,-0.1527,-0.1527,-0.1527,0,-0.1185,-0.1225,-0.1244,-0.1301,-0.1316,-0.1331,-0.1383,-0.1389,-0.1452,-0.1457,-0.1472,-0.151,-0.1491,-0.1494,-0.15,-0.1446,-0.1412,-0.1368,-0.148,-0.1487,-0.1291,-0.129,-0.1243,-0.1239,-0.1235,-0.1232,-0.1229,0,-0.1152,-0.1158,-0.1221,-0.1224,-0.1251,-0.1283,-0.129,-0.1363,-0.1363,-0.1426,-0.1407,-0.1429,-0.1428,-0.1334,-0.1362,-0.1322,-0.1302,-0.1286,-0.1292,-0.1257,-0.126,-0.1265,-0.1269,-0.1223,-0.1222,-0.1221,-0.122,0,-0.1086,-0.1123,-0.1135,-0.1148,-0.1162,-0.1175,-0.1196,-0.1195,-0.1257,-0.1333,-0.1299,-0.1287,-0.1257,-0.1246,-0.1212,-0.1188,-0.1305,-0.1247,-0.1255,-0.1261,-0.1233,-0.124,-0.1248,-0.1207,-0.1209,-0.121,-0.1211,0,-0.1035,-0.1028,-0.1046,-0.1043,-0.106,-0.1042,-0.1078,-0.1069,-0.1091,-0.1168,-0.1149,-0.1177,-0.1229,-0.1172,-0.1144,-0.1104,-0.1095,-0.1074,-0.1091,-0.1106,-0.106,-0.1004,-0.0888,0,0,0,0,0,-0.0972,-0.094,-0.093,-0.0916,-0.0934,-0.0944,-0.0989,-0.1029,-0.1101,-0.1037,-0.1092,-0.1055,-0.1022,-0.1048,-0.0976,-0.1077,-0.1097,-0.0989,-0.1083,-0.1135,-0.115,-0.1107,0,0,0,0,0,0,-0.092,-0.0906,-0.089,-0.0808,-0.0779,-0.0784,-0.0814,-0.0869,-0.0845,-0.0929,-0.0913,-0.0982,-0.0962,-0.1031,-0.0948,-0.0953,-0.0988,-0.1016,-0.1013,-0.1127,-0.114,-0.1153,-0.1113,0,0,0,0,0]},{"header":{"parameterUnit":"m.s-1","parameterCategory":2,"la1":30.2991,"la2":30.254,"lo1":-89.0895,"lo2":-89.0444,"dy":0.0017,"dx":0.0017,"nx":28,"ny":28,"refTime":"2024-08-15T09:00:00:Z","depth":"4","parameterNumber":3,"parameterNumberName":"V-component_of_CURRENTS"},"data":[0,0,0,0,0,0,0,0,0,0,0,0,0,0,0,0,0,0,0,0,0,0,0,0,0,0,0,0,0,0,0,0,0,0,0,0,0,0,0,0,0,0,0,0,0,0,0,0,0,0,0,0,0,0,0,0,0,0,-0.0295,-0.0295,0,-0.0287,-0.0288,-0.0288,-0.0303,-0.0303,-0.0304,-0.0304,-0.0313,-0.0313,-0.0313,0,0,0,0,0,0,0,0,0,0,0,0,0,-0.0331,-0.0331,-0.0296,-0.0295,-0.0295,-0.0287,-0.0288,-0.0288,-0.0303,-0.0303,-0.0304,-0.0304,-0.0313,-0.0313,-0.0313,0,0,0,0,0,0,0,0,0,0,0,0,0,-0.0322,-0.0331,-0.0296,-0.0299,-0.0299,-0.0287,-0.0288,-0.0288,-0.0303,-0.0303,-0.0304,-0.0304,-0.0313,-0.0313,-0.0313,-0.0308,0,0,-0.0313,-0.0313,0,0,0,0,0,0,0,0,-0.0323,-0.0321,-0.0299,-0.0299,-0.0298,-0.0293,-0.0303,-0.0294,-0.0303,-0.0305,-0.0304,-0.0304,-0.0305,-0.0306,-0.0309,-0.0308,-0.0309,-0.0313,-0.0313,-0.0313,-0.0313,0,0,0,0,0,0,0,-0.0323,-0.0322,-0.0296,-0.0298,-0.0298,-0.0303,-0.0302,-0.0302,-0.0307,-0.0305,-0.0305,-0.0299,-0.0306,-0.0309,-0.0309,-0.0309,-0.0313,-0.0313,-0.0313,-0.0313,-0.0328,-0.0328,0,0,0,0,0,0,-0.0316,-0.0322,-0.0296,-0.0295,-0.0307,-0.0302,-0.0301,-0.0298,-0.0307,-0.0307,-0.0298,-0.0299,-0.0308,-0.0309,-0.0309,-0.0328,-0.0313,-0.0313,-0.0313,-0.0328,-0.0328,-0.0328,0,0,0,0,0,0,-0.0317,-0.0314,-0.0296,-0.0306,-0.0303,-0.03,-0.0297,-0.0297,-0.0304,-0.03,-0.0302,-0.0305,-0.0308,-0.0309,-0.0314,-0.0327,-0.0313,-0.0313,-0.0327,-0.0328,-0.0328,-0.0349,0,0,0,0,0,0,-0.0318,-0.0315,-0.032,-0.0305,-0.0302,-0.0299,-0.0296,-0.0297,-0.0297,-0.0299,-0.0306,-0.0307,-0.0309,-0.0314,-0.0314,-0.0327,-0.0313,-0.0327,-0.0328,-0.0328,-0.0348,-0.035,-0.0352,0,0,0,0,0,-0.032,-0.0323,-0.032,-0.0317,-0.0306,-0.0299,-0.0299,-0.03,-0.0298,-0.0307,-0.0307,-0.0307,-0.0318,-0.0314,-0.0314,-0.0328,-0.0327,-0.0327,-0.0328,-0.0347,-0.035,-0.0352,0,0,0,0,0,0,-0.0345,-0.0324,-0.0321,-0.0319,-0.0313,-0.0301,-0.0307,-0.0301,-0.0308,-0.0311,-0.0308,-0.0309,-0.032,-0.0318,-0.0313,-0.0334,-0.0324,-0.0325,-0.0338,-0.0341,-0.0343,-0.0334,-0.0313,0,0,0,0,0,-0.035,-0.0348,-0.0329,-0.0331,-0.0326,-0.0316,-0.0315,-0.0314,-0.031,-0.0314,-0.0317,-0.032,-0.0322,-0.0326,-0.033,-0.0338,-0.0302,-0.0347,-0.0349,-0.0351,-0.0344,-0.0307,-0.0305,-0.0331,-0.0331,-0.0331,0,0,-0.036,-0.0349,-0.0349,-0.0337,-0.0332,-0.0329,-0.0318,-0.0318,-0.0322,-0.0313,-0.0329,-0.0328,-0.0325,-0.0338,-0.0342,-0.0338,-0.0321,-0.0352,-0.0354,-0.0345,-0.0308,-0.0305,-0.0303,-0.0331,-0.0331,-0.0331,0,0,-0.0377,-0.0369,-0.0372,-0.0365,-0.0354,-0.0346,-0.0345,-0.0336,-0.0342,-0.0346,-0.0344,-0.0349,-0.0353,-0.0357,-0.0357,-0.0371,-0.0333,-0.0375,-0.0379,-0.0345,-0.0342,-0.0339,-0.027,-0.026,-0.0377,-0.0377,-0.0377,0,-0.0393,-0.039,-0.0375,-0.0372,-0.0367,-0.0353,-0.0354,-0.0356,-0.0354,-0.0354,-0.0356,-0.0353,-0.0362,-0.0362,-0.0374,-0.0376,-0.0332,-0.0371,-0.0346,-0.0342,-0.0339,-0.0269,-0.0259,-0.0378,-0.0378,-0.0378,-0.0378,0,-0.0405,-0.0406,-0.0406,-0.0398,-0.0392,-0.0392,-0.038,-0.0384,-0.0382,-0.0379,-0.038,-0.0382,-0.0375,-0.0387,-0.0386,-0.0373,-0.034,-0.0351,-0.0337,-0.0338,-0.0264,-0.0252,-0.038,-0.0379,-0.0379,-0.0379,0,0,-0.0432,-0.042,-0.0421,-0.0422,-0.0404,-0.0402,-0.0402,-0.0397,-0.039,-0.0396,-0.0382,-0.0401,-0.039,-0.0388,-0.0387,-0.0367,-0.0312,-0.035,-0.0347,-0.0276,-0.0197,-0.0206,-0.0194,-0.0314,-0.0313,-0.0312,-0.0146,0,-0.0449,-0.0458,-0.044,-0.0448,-0.0449,-0.0427,-0.0425,-0.0418,-0.0406,-0.0392,-0.0388,-0.0379,-0.0393,-0.0383,-0.0366,-0.0327,-0.0286,-0.0354,-0.0211,-0.0206,-0.0211,-0.0184,-0.0308,-0.0138,-0.0135,-0.0133,-0.0132,0,-0.0461,-0.0468,-0.0482,-0.047,-0.0466,-0.0469,-0.0449,-0.0444,-0.0415,-0.0399,-0.0378,-0.036,-0.0334,-0.0345,-0.026,-0.0296,-0.0243,-0.0211,-0.0204,-0.0198,-0.0196,-0.0142,-0.0111,-0.0112,-0.0114,-0.0115,-0.0117,0,-0.0487,-0.0489,-0.0506,-0.0504,-0.0492,-0.0494,-0.0486,-0.0457,-0.0451,-0.04,-0.0377,-0.0332,-0.0306,-0.0243,-0.0189,-0.0208,-0.0079,-0.0097,-0.0044,-0.0042,-0.0073,-0.0078,-0.0019,-0.002,-0.002,-0.002,-0.0021,0,-0.0501,-0.0513,-0.0528,-0.0537,-0.0556,-0.0526,-0.053,-0.0504,-0.0464,-0.0455,-0.0389,-0.0356,-0.0281,-0.0208,-0.0152,-0.0059,-0.0043,-0.0025,-0.0004,-0.0083,-0.0091,-0.0063,-0.007,-0.0014,-0.0016,-0.0017,-0.0018,0,-0.0517,-0.0526,-0.0551,-0.0562,-0.0572,-0.0586,-0.0579,-0.0577,-0.0517,-0.0493,-0.0475,-0.0364,-0.0255,-0.0168,-0.0048,-0.0015,0.0073,0.0103,0.0047,0.006,0.0092,0.0081,0.0204,0.0205,0.0205,0.0206,0.0207,0,-0.0522,-0.0542,-0.0587,-0.0619,-0.0631,-0.0651,-0.0667,-0.0622,-0.0613,-0.0508,-0.0498,-0.0366,-0.0295,-0.0102,-0.0015,0.0137,0.0128,0.0194,0.011,0.0104,0.0113,0.0102,0.009,0.0208,0.0208,0.0208,0.0209,0,-0.0541,-0.0567,-0.0594,-0.0662,-0.0702,-0.0729,-0.0741,-0.073,-0.0668,-0.0626,-0.0506,-0.0383,-0.0245,-0.01,0.0023,0.0112,0.0159,0.0203,0.0201,0.0123,0.0111,0.0116,0.0105,0.0212,0.0211,0.0211,0.0211,0,-0.0562,-0.0595,-0.0644,-0.0695,-0.075,-0.0775,-0.0777,-0.0748,-0.0716,-0.0602,-0.0566,-0.0391,-0.0291,-0.011,-0.0006,0.0095,0.0106,0.0112,0.0115,0.0113,0.0012,-0.0021,0.0074,0,0,0,0,0,-0.0582,-0.0622,-0.0673,-0.0724,-0.0772,-0.0797,-0.0811,-0.0799,-0.0748,-0.068,-0.0615,-0.0485,-0.0275,-0.0163,-0.0064,-0.0006,0.0112,0.0112,0.0117,0.0227,0.0224,0.0116,0,0,0,0,0,0,-0.0601,-0.0656,-0.0674,-0.0727,-0.0763,-0.0807,-0.0815,-0.0786,-0.0731,-0.0667,-0.0551,-0.0481,-0.0275,-0.0337,-0.0067,-0.003,-0.0019,0.0215,0.0216,0.0229,0.0226,0.0224,0.0111,0,0,0,0,0]}]]